Wind_Speed
17 17 17 18 16 15 15 15 15 14 14 14 14 13 12 10 9 9 9 11 13 15 15 16 17 16 15 17 18 18 17 16 17 17 18 19 17 16 16 15 17 16 16
22 19 18 18 16 15 15 15 14 12 13 14 15 13 11 9 8 8 8 9 11 12 13 13 13 13 13 15 15 15 15 15 16 17 19 18 15 14 15 16 17 16 16
23 20 18 18 15 14 14 14 12 13 13 13 12 10 10 9 8 8 8 10 11 12 12 13 13 13 13 13 13 13 13 13 14 13 13 17 14 14 15 16 17 15 16
22 21 18 19 16 14 13 13 12 11 11 11 10 10 8 7 7 8 9 11 10 10 11 11 12 13 13 12 12 12 12 12 15 12 12 14 14 13 14 14 14 14 15
21 19 18 19 16 14 12 12 12 10 10 10 9 8 7 6 6 7 8 9 9 8 9 10 11 12 12 12 12 11 12 11 14 10 11 11 11 10 12 13 12 12 11
20 18 19 17 14 13 11 10 10 10 9 9 8 8 7 6 5 6 7 6 8 8 8 9 9 10 12 11 12 11 9 11 9 8 8 9 9 8 9 11 11 11 11
18 16 16 16 13 12 11 10 8 7 7 7 7 7 7 6 6 4 5 6 7 8 8 9 9 9 9 10 10 10 9 11 7 7 7 6 7 8 9 10 9 11 10
16 16 15 14 13 11 10 9 7 6 5 5 5 5 6 7 6 4 5 4 5 6 7 8 8 9 9 9 9 8 7 7 4 5 5 5 6 8 7 7 8 8 8
14 13 13 12 11 10 8 7 5 4 2 2 2 3 3 4 4 3 3 4 4 5 5 6 6 7 8 7 7 6 5 6 4 4 5 5 6 9 6 5 6 7 8
12 11 12 12 11 9 6 6 5 4 4 2 0 2 2 3 2 0 1 2 2 3 3 4 5 6 6 6 6 6 5 4 4 4 5 4 5 7 8 6 6 7 6
13 11 10 11 10 8 5 5 4 5 4 3 2 2 2 1 1 1 2 3 3 3 4 4 4 5 5 7 8 7 7 8 8 6 6 7 6 9 9 9 9 7 9
14 13 10 8 8 7 6 5 4 3 4 5 4 2 3 2 2 2 3 4 5 4 5 5 5 6 6 8 8 9 10 10 9 9 9 10 8 10 12 11 11 10 10
13 12 11 9 7 6 5 5 5 4 3 5 4 2 3 4 3 4 3 2 4 5 7 5 7 8 9 9 9 10 10 11 11 11 11 13 13 11 14 15 12 13 12
11 11 10 10 8 7 5 6 5 4 3 5 4 2 2 3 3 3 4 2 3 5 5 7 8 9 8 10 11 12 12 12 12 11 12 15 15 14 13 15 15 15 15
11 9 9 9 10 9 8 6 5 5 4 5 7 6 3 3 4 3 4 3 6 5 6 7 9 10 10 11 12 12 13 12 12 12 11 11 14 16 15 15 16 17 18
9 10 9 10 11 10 8 7 6 5 4 4 5 7 6 6 2 4 5 3 4 6 6 7 8 8 9 11 11 12 12 12 12 12 11 10 10 13 15 17 16 18 18
9 8 9 10 11 10 9 8 7 6 5 3 4 7 5 6 8 7 5 3 2 4 6 5 6 6 7 9 10 11 12 13 13 12 12 11 10 11 14 17 16 18 19
6 10 9 9 10 11 9 8 7 6 5 4 5 7 6 8 8 7 7 8 5 7 5 5 5 5 7 7 8 8 10 11 11 12 13 12 12 12 12 13 16 16 17
10 12 9 10 9 8 8 8 8 7 7 6 6 5 3 3 4 4 4 5 6 6 8 5 6 6 8 6 7 9 10 11 12 14 14 14 15 15 14 12 15 18 19
11 12 10 10 11 9 9 9 9 8 7 6 6 5 4 3 4 5 5 4 7 8 5 5 6 7 7 9 8 11 10 10 13 14 14 16 16 16 16 15 15 16 17
12 13 13 12 12 12 11 10 9 9 7 7 8 7 7 5 4 8 8 7 6 8 8 8 8 8 7 6 5 9 8 10 11 13 14 14 14 16 17 15 15 16 15
16 17 18 17 16 16 13 12 10 8 8 7 5 6 6 6 7 7 10 9 11 10 10 9 7 9 8 5 5 10 4 2 7 9 11 14 15 15 14 15 16 15 15
16 19 19 17 16 16 15 11 8 8 9 9 8 7 7 6 8 9 10 12 12 12 12 12 10 9 12 9 6 5 4 2 5 5 6 8 10 12 14 15 16 16 16
15 15 13 13 11 11 12 11 10 10 9 7 6 8 8 9 9 9 10 11 11 13 14 15 12 13 12 13 12 11 10 11 6 2 4 7 7 9 9 12 15 15 15
11 10 10 10 12 11 12 10 7 7 8 11 11 10 11 12 12 13 13 12 12 13 14 16 18 16 13 16 15 12 11 10 11 8 8 3 8 10 9 7 9 12 13
8 10 8 9 8 9 10 9 7 4 3 8 9 11 12 12 14 15 15 15 14 14 15 15 16 17 17 18 16 17 14 10 12 11 8 10 12 10 9 10 10 9 10
Wind_Direction
149 145 136 130 126 118 113 113 111 107 104 106 106 113 118 117 107 99 91 88 90 90 91 95 97 107 108 106 108 112 107 103 99 97 96 100 101 102 99 95 100 102 105
145 146 139 134 131 124 115 109 107 106 104 106 103 107 110 109 106 101 92 104 102 99 96 100 104 105 111 115 111 111 110 109 111 110 106 96 91 95 98 97 100 104 102
144 147 144 140 135 126 120 116 113 106 106 101 99 101 104 108 104 95 92 114 113 107 106 106 110 113 114 113 113 114 111 109 107 109 114 95 95 94 98 102 98 102 103
144 148 149 147 140 132 126 120 115 108 103 103 101 98 99 104 101 95 96 106 108 108 116 115 119 118 117 115 114 113 111 109 109 100 108 108 105 103 100 98 99 105 105
146 147 154 150 144 137 132 127 119 110 101 95 92 91 86 89 95 109 94 102 105 110 116 119 122 126 124 122 122 120 119 120 110 99 105 106 109 107 105 97 99 99 116
149 148 157 151 148 145 141 132 122 117 105 95 88 76 64 83 89 104 107 106 110 96 120 121 123 124 123 128 127 124 123 120 104 112 112 126 102 127 117 120 126 118 115
153 148 156 155 155 152 145 136 128 119 112 99 88 78 67 78 91 102 119 101 125 123 123 127 132 132 138 133 132 120 122 112 120 124 119 125 126 127 123 121 124 126 118
156 152 158 161 159 156 151 145 140 133 121 108 92 82 77 68 93 104 107 112 103 130 128 133 143 148 144 143 144 145 146 127 106 138 135 133 149 141 146 143 145 133 131
160 155 161 164 163 160 157 169 152 149 127 109 93 75 81 72 75 92 119 116 115 115 136 152 158 153 159 165 165 168 165 164 154 139 161 162 184 154 165 154 159 158 148
167 167 167 166 167 171 184 190 178 187 186 196 217 27 42 61 47 133 134 152 152 130 144 143 149 160 177 186 194 204 210 208 218 205 205 189 210 190 179 182 199 176 175
178 181 180 171 173 182 194 201 203 201 238 208 220 259 347 293 285 18 276 233 199 210 189 184 186 188 200 209 220 225 235 239 222 227 230 236 236 217 205 205 211 207 202
184 183 191 190 182 189 204 210 205 202 209 238 231 267 284 301 252 239 275 266 240 219 224 218 221 223 233 227 228 247 240 244 243 243 240 245 241 230 224 219 216 226 224
187 182 193 193 193 199 203 213 214 206 232 262 258 276 268 284 282 268 280 262 224 245 240 242 248 237 238 242 241 245 244 244 247 247 249 249 246 242 239 229 228 234 234
189 191 194 193 194 207 205 218 224 220 224 256 232 272 307 272 276 322 306 277 242 231 240 243 247 243 244 243 247 253 250 249 251 254 250 251 251 244 241 230 233 241 240
191 196 202 195 196 198 210 223 234 226 211 229 252 263 279 324 337 311 339 296 271 266 259 259 258 258 258 249 246 248 252 252 253 258 262 256 260 243 238 236 241 243 246
195 191 196 200 201 202 207 221 230 223 216 228 253 278 277 299 305 331 324 313 279 269 277 272 268 272 264 257 249 250 251 253 252 259 258 252 262 245 241 246 251 248 250
191 188 199 203 206 211 215 219 221 216 217 216 236 271 288 271 258 258 308 308 296 248 267 298 275 267 269 265 253 252 250 250 255 248 250 247 247 258 257 255 252 249 248
204 183 200 205 206 209 214 214 222 226 233 239 233 231 231 239 230 227 255 277 273 287 271 275 290 285 281 276 275 254 247 244 247 248 249 250 246 257 251 255 249 245 246
205 205 196 201 206 205 215 220 229 238 250 250 255 259 275 268 236 211 238 244 240 273 302 273 280 290 291 274 266 269 259 251 248 245 243 245 245 249 256 249 262 253 243
200 198 192 185 196 200 212 223 227 231 241 247 246 257 271 271 242 229 247 241 246 260 273 290 286 278 280 272 281 278 274 262 254 252 251 244 241 243 245 250 254 256 251
203 196 196 194 191 199 206 212 234 241 234 242 247 250 274 264 238 243 248 246 254 264 264 268 276 263 285 272 273 283 258 252 250 246 247 248 246 243 247 246 249 253 255
199 199 194 197 196 200 208 205 211 215 244 257 262 265 267 276 283 246 246 251 252 267 263 267 274 282 284 267 284 301 292 218 247 233 244 247 247 243 245 249 248 247 248
198 204 207 205 200 199 201 210 216 228 246 247 253 253 246 252 269 262 251 247 252 244 253 251 256 261 277 279 243 271 279 195 315 247 239 244 235 237 249 252 247 244 246
207 207 200 198 202 208 202 210 224 248 264 255 254 254 258 257 258 253 248 246 246 247 254 262 259 254 263 272 273 250 252 293 293 267 257 222 226 237 254 264 247 240 245
203 201 194 182 200 211 212 208 225 241 262 268 257 267 273 274 269 263 255 251 249 253 255 254 258 253 256 259 264 277 292 251 229 272 292 261 219 234 258 264 243 243 246
190 180 171 175 169 198 202 199 187 228 276 281 277 283 281 283 290 273 266 265 256 255 259 267 270 274 265 263 263 257 255 268 278 251 252 258 264 283 255 259 259 247 243
Height
817 820 822 824 825 826 826 827 828 829 830 830 831 832 832 832 832 833 833 834 834 835 835 835 836 836 837 838 839 840 840 841 841 841 843 844 846 846 847 848 849 850 851
815 821 824 825 827 828 829 830 831 832 832 832 833 835 835 835 834 835 835 836 836 837 837 838 839 840 840 841 842 843 844 845 846 847 846 846 848 848 849 850 851 852 853
817 822 825 828 830 830 831 832 834 834 835 835 836 836 837 837 837 836 837 837 838 839 839 840 841 842 843 844 845 847 847 848 848 847 846 848 852 853 853 853 853 854 855
818 823 827 829 831 833 834 835 836 837 837 837 838 838 839 840 839 839 839 840 840 841 842 843 843 844 845 847 848 849 849 850 850 849 848 851 854 855 855 855 856 857 857
820 824 828 830 833 835 836 837 838 839 839 840 840 841 841 841 842 842 842 842 843 843 844 845 845 846 847 849 850 851 851 852 853 853 853 854 855 857 856 857 858 859 861
821 825 828 832 834 836 838 839 840 841 841 842 842 843 842 842 843 844 844 844 844 844 846 847 848 848 850 851 852 852 853 853 853 854 855 856 856 858 859 859 860 862 863
823 826 831 833 836 838 840 840 842 843 843 844 844 844 844 844 845 845 846 846 846 847 847 848 849 851 852 853 854 854 854 854 855 855 856 856 858 859 860 860 861 862 864
824 828 833 835 838 840 841 842 843 844 844 844 845 845 846 846 846 846 847 847 848 848 848 849 850 851 853 855 855 855 855 855 856 857 857 857 858 860 861 862 863 863 864
826 829 834 837 839 841 842 843 844 845 845 845 846 846 847 847 847 847 848 849 849 850 850 851 851 852 854 855 856 856 856 856 858 857 857 858 859 860 862 862 863 864 865
828 832 834 837 840 842 843 843 845 844 845 846 847 847 847 847 848 848 848 849 850 850 851 852 852 854 855 856 856 857 857 857 857 858 858 858 859 860 860 861 862 863 864
830 833 834 836 840 842 843 843 845 845 845 846 846 847 847 848 848 848 848 848 849 850 851 852 852 853 853 854 855 857 857 856 854 856 857 857 858 858 859 861 861 862 863
829 833 835 836 840 842 843 844 845 846 845 845 847 847 847 848 848 848 847 847 848 849 849 851 851 852 851 852 852 854 855 854 854 854 854 855 856 857 858 859 860 861 862
828 832 836 839 841 841 843 843 844 844 845 846 846 847 847 847 847 846 846 846 847 848 848 848 849 849 849 849 850 851 851 852 852 852 851 852 854 855 856 858 860 860 861
828 831 834 838 840 842 842 843 844 844 845 845 845 846 846 846 846 846 845 846 846 846 847 848 847 848 848 849 850 850 850 850 850 849 849 849 851 852 853 855 857 859 860
826 830 833 836 839 841 843 843 843 844 844 845 845 846 845 845 844 845 845 845 845 845 845 845 846 846 847 847 847 847 848 848 848 847 846 846 848 849 851 852 853 855 856
824 828 831 835 837 839 840 842 843 843 844 845 844 845 846 845 845 844 844 844 844 844 844 844 844 845 844 844 843 844 844 845 845 846 845 845 845 846 847 849 851 852 853
823 827 830 833 836 837 839 840 841 842 843 845 844 845 845 844 845 843 842 842 842 843 842 842 842 842 843 841 841 842 842 842 842 843 844 843 842 842 844 846 847 849 849
822 825 829 831 833 835 837 838 839 839 841 842 843 842 844 844 844 843 841 841 841 840 841 841 840 841 841 840 840 838 837 838 839 840 841 840 839 839 839 841 843 844 846
820 824 826 829 832 834 836 837 838 838 839 839 840 841 842 841 841 841 841 841 840 841 839 839 839 839 839 838 838 837 834 834 834 834 836 836 836 837 837 836 839 840 841
816 821 823 825 829 833 835 835 836 836 836 836 836 836 837 837 837 838 838 839 839 838 839 838 838 838 837 837 835 833 831 831 831 832 831 831 832 833 834 834 835 835 835
814 817 820 823 826 829 831 833 835 835 832 833 833 834 834 835 834 835 835 836 836 836 836 836 836 837 836 835 834 831 827 827 828 828 829 828 828 828 827 828 830 830 830
809 813 816 818 821 824 827 829 830 831 831 831 831 832 832 834 833 832 832 833 832 832 833 833 834 833 832 831 832 828 823 822 823 824 824 824 824 824 824 825 826 827 828
806 808 813 817 819 822 824 827 829 830 831 830 830 829 828 829 829 828 828 828 829 829 829 830 830 831 829 828 829 829 823 824 822 818 821 821 822 822 821 822 822 823 824
804 808 813 816 820 822 824 825 827 826 826 823 827 826 827 826 826 825 825 825 825 827 827 827 827 828 828 825 824 823 825 825 819 814 817 816 819 819 818 818 816 818 819
806 809 812 814 816 820 823 824 826 827 827 827 825 825 825 824 823 822 821 822 822 823 823 822 823 823 825 825 822 821 824 821 823 821 814 814 812 812 814 814 813 813 814
806 808 812 814 815 818 821 823 824 825 825 825 823 823 821 819 819 818 819 819 819 819 819 819 821 822 821 821 820 821 821 822 814 812 810 809 808 807 809 811 811 810 810